Погода в Шымкенте

Поиск расширенной информации на нашем сайте:

Полезная информация:

Новости сайта



02.01.2020
Опубликован Долгосрочный прогноз погоды по городам России и ближнего зарубежья на январь 2020 года.
Карты: Прогноз на январь и февраль 2020 года, Сравнение прогнозируемой аномалии приземной температуры воздуха на январь 2020 года по разным моделям.




Погода в Шымкенте - сегодня

Время (UTC), дата Ветер
(°,м/с) 
Видим.   Явления Облачность Т
(°С)
Тd
(°С)
f(%) Тe
(°С)
Pmin
(гПа)
dP
(гПа)
Po
(мм)
O2
(г/м3)
Тmin Tmax R s Состояние
почвы
03 30.11.20 100 (В) 50000 м    3/0 верхняя 
[Ci fib]
-11.5 -14.3 80 -11  1039.1  -0.2  721  304        13  равномерный
сухой снег
100% 
06 30.11.20 тихо ()   20000 м    6/0 средняя, верхняя 
[Ac lent|Ci fib]
-1.8 -8.2 62 -2  1035.5  -0.7  720  293  -12.3         
09 30.11.20 190 (Ю) 20000 м    8/0 средняя, верхняя 
[Ac trans|Ci fib]
+1.6 -5.5 59 +2  1032.5  -1.9  719  289           
12 30.11.20 140 (ЮВ) 20000 м    8/0 средняя 
[Ac cast]
-4.2 -9.5 66 -5  1032.1  -1.9  718  294           
15 30.11.20 190 (Ю) н/о    6/0 средняя 
[Ac trans]
-5 -10.2 67 -5  1030.9  -1.3  717  295    +2.6       
18 30.11.20 тихо ()   н/о    9/9 600 м 
[Sc]
-4.2 -7.9 75 -4  1030  -0.6  716  294    +2.6       
21 30.11.20 090 (В) н/о    6/3 600 м средняя 
[Sc|Ac trans]
-4.8 -10.4 65 -6  1029.1  -1.1  715  294           
00 01.12.20 120 (ЮВ) н/о    8/0 средняя 
[Ac cast]
-2.6 -9.3 60 -2  1027.4  -0.9  715  292           
03 01.12.20 080 (В) 50000 м    9/9 600 м 
[Sc]
-1 -9.5 52 1027.8  0.8  715  290        12  равномерный
сухой снег
100% 
06 01.12.20 090 (В) 20000 м    8/4 600 м средняя 
[Sc|Ac trans]
+4.8 -6.4 44 +6  1025.8  -0.4  715  284  -6.4         
09 01.12.20 140 (ЮВ) 20000 м    6/3 600 м средняя, верхняя 
[Sc|Ac trans|Ci ing]
+6.4 -5.4 43 +7  1025.7  0.3  715  282           
12 01.12.20 тихо ()   20000 м    9/6 600 м кучево-дожд., средняя 
[Cb cap|Ac trans]
+2.6 -3.1 66 +3  1026.9  0.2  715  286           
15 01.12.20 тихо ()   н/о  дымка  10/10 600 м кучево-дожд. 
[Cb cap|Ac trans]
+1.6 +0 89 +2  1027.7  0.5  716  287    +7.2       
18 01.12.20 тихо ()   н/о    10/10 600 м кучево-дожд. 
[Cb cap]
+2.6 -1.5 74 +3  1027.5  0.1  716  286    +7.2       
21 01.12.20 140 (ЮВ) н/о    10/10 600 м кучево-дожд. 
[Cb cap]
+3.6 -0.9 72 +4  1028  0.7  716  285           
00 02.12.20 140 (ЮВ) н/о    9/3 600 м средняя 
[Sc|Ac trans]
+2.4 -1.4 76 +3  1028.4  716  286           
03 02.12.20 140 (ЮВ) 20000 м    10/3 600 м средняя, верхняя 
[Sc|Ac trans|Ci ing]
+2.1 -2.1 74 +1  1028.8  0.4  717  287        10  равномерный
мокрый или
старый снег
100% 
06 02.12.20 100 (В) 20000 м    8/3 600 м средняя, верхняя 
[Sc|Ac trans|Ci fib]
+6.1 +1.5 72 +7  1027.9  0.2  717  282  +1         
09 02.12.20 170 (Ю) 20000 м    8/6 600 м средняя 
[Sc|Ac trans]
+7 -1.9 53 +8  1026.9  -0.8  716  281           
12 02.12.20 тихо ()   20000 м    9/9 600 м 
[Sc]
+5 -0.1 70 +5  1027  -0.4  716  283           
15 02.12.20 100 (В) н/о    10/10 600 м 
[Sc]
+2.2 -0.5 82 +3  1027.1  -0.6  715  286    +7.8       
18 02.12.20 тихо ()   н/о    8/6 600 м средняя 
[Sc|Ac trans]
+2.4 -0.8 79 +2  1027.3  0.2  716  286    +7.8       
21 02.12.20 тихо ()   н/о  дымка  9/6 600 м средняя 
[Sc|Ac trans]
+1.4 -0.8 85 +1  1027.8  0.3  716  287           
00 03.12.20 100 (В) н/о  дымка{ливн. осадки}  10/10 600 м 
[Sc]
+0.6 -1.1 88 +1  1028.9  0.8  716  288           
03 03.12.20 100 (В) 2000 м  дымка  9/6 600 м кучево-дожд., средняя 
[Cb cap|Ac trans]
-0.2 -1.3 92 1029.4  0.2  716  289      0.0  равномерный
мокрый или
старый снег
100% 
Время (UTC), дата Ветер
(°,м/с) 
Видим.   Явления Облачность Т
(°С)
Тd
(°С)
f(%) Тe
(°С)
Pmin
(гПа)
dP
(гПа)
Po
(мм)
O2
(г/м3)
Тmin Tmax R s Состояние
почвы

Для получения пояснительной информации подведите курсор к названию столбца.

ПОГОДА в Шымкенте - архив

Всё, что Вы хотите узнать о погоде в Шымкенте - удобно и подробно!

Выберите нужную дату (начиная с 1 января 2019* года) и нажмите кнопку "Найти".
Будут отображены архивные сводки погоды по пункту Шымкент, начиная с указанной даты.


Отображать данные в формате CSV (для использования в таблицах Excel)


Внимание! Наш архив погоды предназначен исключительно для личного некоммерческого использования в познавательных целях. Если Вам необходимы официальные справки о состоянии погоды (для производственных, юридических, коммерческих и т.п. целей), обращайтесь в органы Росгидромета.

*Примечание: данная дата относится к архиву по метеостанциям СССР (Россия, СНГ, Балтия).
Архив по метеостанциям Зарубежной Европы и Азии (кроме Китая) хранится 10 дней, по другим регионам земного шара (Китай, Африка, Америка, Австралия, Океания) - 1 день.

Шымкент - район местоположения метеостанции


Название, широта, долгота, высота метеостанции:
Шымкент (город) 42.3°ш. 69.7°д. 604 м над ур. моря [Казахстан]

Дополнительная информация

В oтличие oт бoльшинства пoгoдных сайтoв мы публикуем пoдрoбную метеoинфoрмацию в детальнoм прoфессиoнальнoм фoрмате.

Характеристики температуры и влажнoсти вoздуха измеряются на высoте 2 м в тени вдали oт зданий и деревьев.
Скoрoсть ветра измеряется на высoте 10 м (на урoвне рoста челoвека скoрoсть ветра ниже в 1.5-2 раза). Если метеoстанция нахoдится в гoрoде или в лесу, тo скoрoсть ветра занижена на 2-4 м/с пo сравнению с oткрытым местoм. Скoрoсть ветра над акватoриями крупных рек и oзёр, а также на вершинах хoлмoв на 2-5 м/с выше, чем в oбычных услoвиях.
Атмoсфернoе давление в разных тoчках местнoсти мoжет значительнo oтличаться oт давления на метеoстанции, в зависимoсти oт услoвий рельефа (при пoдъёме на 10 м давление пoнижается примернo на 1 мм рт.ст.).